Temperature
2 2 2 2 1 1 1 3 4 4 4 4 4 3 2 1 0 0 0 0 -0 -0 -0 0 0 0 0 0 0 1 1 1 1 1 1 1 1 1 1 1 1 1 1 1
1 1 1 1 2 1 1 2 2 2 3 4 2 1 1 1 0 -0 -0 -0 -1 -1 -0 -0 -0 -0 -0 0 0 0 0 0 1 1 1 1 1 1 0 0 0 0 0 0
3 1 1 3 2 1 1 1 1 2 3 2 1 1 0 -0 -0 -0 -1 -1 -1 -1 -1 -1 -1 -0 -0 -0 -0 -0 0 0 0 0 0 0 0 0 0 0 0 -0 -0 -0
2 2 3 4 1 1 1 0 0 1 1 1 0 -0 -0 -0 -1 -1 -1 -1 -1 -1 -1 -1 -1 -1 -1 -1 -1 -0 -0 -0 -0 -0 -0 -0 -0 -0 -0 -0 -0 -0 -0 -0
1 2 4 3 1 0 0 1 1 0 0 0 -1 -1 1 -0 -1 -1 -1 -1 -2 -1 -1 -1 -1 -1 -1 -1 -1 -1 -1 -1 -1 -1 -1 -1 -0 -0 -0 -1 -1 -1 -1 -1
1 2 4 4 1 -1 0 2 1 -0 -0 -0 -1 2 2 -1 -1 -1 -1 -2 -2 -1 -1 -1 -1 -1 -1 -2 -2 -1 -1 -1 -1 -1 -1 -1 -1 -1 -1 -1 -1 -1 -1 -1
1 2 3 2 -1 -0 2 3 0 -0 -0 -1 -1 0 -1 -1 -2 -2 -2 -2 -2 -2 -2 -2 -2 -2 -2 -2 -2 -2 -2 -2 -2 -2 -1 -1 -1 -1 -1 -1 -2 -2 -2 -2
0 1 3 0 -1 1 2 0 -0 -1 -1 -1 -1 -2 -2 -2 -2 -2 -2 -2 -2 -2 -2 -2 -2 -2 -2 -2 -2 -2 -2 -2 -2 -2 -2 -2 -2 -2 -2 -2 -2 -2 -2 -2
1 2 1 -1 -0 -0 -0 -1 -1 -1 -1 -1 -2 -2 -2 -2 -2 -2 -2 -2 -2 -2 -2 -2 -2 -2 -2 -2 -2 -2 -2 -2 -2 -2 -2 -2 -2 -2 -2 -2 -2 -3 -3 -3
-2 -0 -1 -1 -1 -1 -1 -1 -1 -1 -1 -1 -2 -2 -2 -2 -3 -3 -3 -2 -2 -2 -2 -3 -3 -3 -3 -3 -3 -3 -3 -3 -3 -3 -3 -3 -3 -3 -3 -3 -3 -3 -3 -3
-2 -1 -1 -1 -1 -0 -0 -1 -1 -1 -1 -2 -2 -2 -3 -3 -3 -3 -3 -3 -3 -3 -3 -3 -3 -3 -3 -3 -3 -3 -3 -3 -3 -3 -3 -3 -3 -3 -3 -3 -3 -3 -4 -4
1 0 -0 0 -0 -0 -1 -1 -1 -1 -2 -2 -2 -2 -3 -3 -3 -3 -3 -3 -3 -3 -3 -3 -3 -3 -3 -3 -3 -3 -4 -4 -4 -4 -4 -4 -4 -4 -4 -4 -4 -4 -4 -4
-1 -1 -1 -1 -1 -1 -1 -1 -2 -2 -2 -2 -2 -3 -3 -3 -3 -3 -3 -3 -3 -3 -4 -4 -4 -4 -4 -4 -4 -4 -4 -4 -4 -4 -4 -4 -4 -4 -4 -4 -4 -4 -4 -4
-1 -2 -2 -2 -2 -2 -2 -2 -2 -2 -2 -2 -3 -3 -3 -3 -3 -3 -4 -4 -4 -4 -4 -4 -4 -4 -4 -4 -4 -4 -4 -5 -5 -5 -5 -5 -5 -5 -5 -5 -5 -5 -5 -5
-2 -2 -2 -2 -2 -2 -2 -2 -2 -2 -2 -3 -3 -3 -3 -3 -4 -4 -4 -4 -4 -4 -4 -4 -4 -4 -4 -5 -5 -5 -5 -5 -5 -5 -5 -5 -5 -5 -5 -5 -5 -5 -5 -5
-2 -2 -3 -3 -3 -3 -3 -3 -3 -3 -3 -3 -3 -3 -4 -4 -4 -4 -4 -4 -4 -4 -5 -5 -5 -5 -5 -5 -5 -5 -5 -5 -5 -5 -5 -5 -5 -5 -5 -5 -5 -5 -5 -5
-3 -3 -3 -3 -3 -3 -3 -3 -3 -3 -3 -3 -3 -4 -4 -4 -4 -4 -4 -5 -5 -5 -5 -5 -5 -5 -5 -5 -5 -5 -5 -5 -5 -5 -5 -5 -5 -5 -6 -6 -6 -6 -6 -6
-3 -3 -3 -3 -3 -3 -3 -3 -3 -3 -3 -3 -4 -4 -4 -4 -4 -4 -5 -5 -5 -5 -5 -5 -5 -5 -5 -5 -5 -5 -5 -5 -5 -5 -5 -5 -6 -6 -6 -6 -6 -6 -6 -6
-3 -3 -3 -3 -3 -3 -3 -3 -3 -4 -4 -4 -4 -4 -4 -4 -4 -5 -5 -5 -5 -5 -5 -5 -5 -5 -5 -5 -5 -5 -5 -5 -5 -6 -6 -6 -6 -6 -6 -6 -6 -6 -6 -6
-3 -3 -3 -3 -3 -3 -3 -3 -3 -4 -4 -4 -4 -4 -4 -4 -5 -5 -5 -5 -5 -5 -5 -5 -5 -5 -5 -5 -5 -5 -5 -5 -6 -6 -6 -6 -6 -6 -6 -6 -6 -6 -6 -6
-3 -3 -3 -3 -3 -3 -3 -3 -4 -4 -4 -4 -4 -4 -5 -5 -5 -5 -5 -5 -5 -5 -5 -5 -5 -5 -5 -5 -5 -5 -5 -5 -6 -6 -6 -6 -6 -6 -6 -6 -6 -6 -6 -6
-2 -2 -3 -3 -3 -3 -3 -3 -4 -4 -4 -4 -5 -5 -5 -5 -5 -5 -5 -5 -5 -5 -5 -5 -6 -5 -5 -5 -5 -5 -6 -6 -6 -6 -6 -6 -6 -6 -6 -6 -6 -6 -6 -6
-3 -3 -3 -3 -3 -3 -3 -3 -4 -4 -4 -4 -5 -5 -5 -5 -5 -5 -5 -5 -5 -5 -6 -6 -6 -6 -6 -6 -6 -6 -6 -6 -6 -6 -6 -6 -6 -6 -6 -6 -6 -6 -6 -6
-3 -3 -3 -3 -3 -3 -3 -4 -4 -4 -4 -4 -5 -5 -5 -5 -5 -5 -5 -5 -5 -5 -6 -6 -6 -6 -6 -6 -6 -6 -6 -6 -6 -6 -6 -6 -6 -6 -6 -6 -6 -6 -6 -6
-3 -3 -3 -3 -3 -3 -4 -4 -4 -4 -4 -5 -5 -5 -5 -5 -5 -5 -5 -5 -5 -6 -6 -6 -6 -6 -6 -6 -6 -6 -6 -6 -6 -6 -6 -6 -6 -6 -6 -6 -6 -6 -6 -6
-3 -3 -3 -3 -3 -4 -4 -4 -4 -4 -5 -5 -5 -5 -5 -5 -5 -6 -6 -6 -6 -6 -6 -6 -6 -6 -6 -6 -6 -6 -6 -6 -6 -6 -6 -6 -6 -6 -6 -6 -6 -6 -6 -6
-3 -3 -4 -4 -4 -4 -4 -4 -4 -5 -5 -5 -5 -5 -5 -5 -5 -6 -6 -6 -6 -6 -6 -6 -6 -6 -6 -6 -6 -6 -6 -6 -6 -6 -6 -6 -6 -6 -6 -6 -6 -6 -6 -6
Wind_Speed
7 7 6 7 8 8 9 9 9 10 12 13 11 10 10 8 7 8 7 7 7 7 7 7 7 7 6 6 5 5 5 5 6 5 5 5 5 5 5 5 5 5 5 5
4 4 5 7 10 10 11 10 12 13 14 11 9 8 7 7 7 8 8 7 8 8 8 8 8 7 7 6 6 5 5 5 5 5 4 4 4 4 4 4 4 4 4 4
4 3 4 7 7 9 6 7 7 10 8 6 7 8 8 7 7 7 8 8 8 8 8 8 8 7 7 7 6 5 5 5 4 4 4 4 4 4 4 4 4 4 3 3
3 2 6 2 1 4 6 7 7 7 7 7 8 9 8 7 6 7 7 8 8 8 8 7 7 7 6 6 5 5 4 4 4 4 3 3 3 3 3 3 3 3 3 2
2 4 6 3 2 2 4 6 5 7 8 7 7 7 4 3 5 6 7 7 7 7 7 7 7 6 6 5 5 4 4 5 5 4 4 3 3 3 3 2 2 2 2 2
3 4 5 2 1 1 2 4 1 3 5 5 5 5 4 5 7 7 7 7 7 6 6 6 6 5 5 5 4 4 5 5 4 4 3 3 3 3 2 2 2 1 2 2
6 6 6 2 0 2 3 3 2 4 4 4 4 6 6 7 7 7 7 7 7 6 5 5 6 5 4 5 5 5 5 4 3 3 3 3 3 2 2 1 1 1 1 1
5 5 5 2 4 4 3 3 3 4 4 5 6 6 6 6 6 6 7 6 6 5 5 5 5 4 4 5 5 5 4 3 3 3 3 3 3 2 1 0 0 1 1 2
6 5 2 4 4 4 3 4 4 4 5 5 6 6 6 6 6 6 6 5 5 4 5 4 4 3 4 5 5 4 4 3 3 3 3 3 2 2 2 1 1 1 1 1
5 7 6 6 6 6 5 6 6 6 5 5 5 6 6 5 5 5 5 5 4 4 4 5 4 4 4 4 4 3 3 3 3 3 3 3 2 2 2 1 1 1 1 2
6 7 6 6 6 7 6 6 5 5 5 5 5 5 5 5 5 4 4 4 4 4 4 5 5 5 4 4 3 3 3 3 3 3 3 3 3 2 2 2 1 1 1 1
6 5 5 4 3 3 4 5 5 5 5 4 4 5 5 4 4 4 4 4 4 4 4 5 5 5 5 4 3 3 3 3 3 2 2 2 2 3 4 3 4 4 3 2
6 5 5 6 4 3 4 4 4 4 4 4 4 3 3 4 4 3 4 4 4 4 4 5 5 5 5 4 3 2 2 2 2 2 2 2 2 2 2 3 4 4 4 4
6 4 4 4 4 3 3 3 3 3 3 3 3 3 2 3 3 3 4 4 4 4 4 4 4 5 5 4 3 2 2 2 2 2 2 1 1 1 1 2 2 2 3 4
6 6 5 3 3 2 2 2 2 3 3 3 2 2 2 3 3 4 4 4 3 4 4 4 4 5 5 4 3 3 2 2 2 2 2 1 1 1 1 1 1 2 2 3
4 4 4 4 4 4 3 2 3 3 3 3 3 3 3 3 3 4 4 3 3 4 4 4 4 5 5 3 3 2 2 3 2 2 2 2 1 1 1 1 1 2 2 2
3 3 4 4 4 4 3 4 4 4 3 3 3 3 2 2 3 3 4 3 3 4 4 4 4 5 4 3 3 2 2 2 3 2 2 1 1 1 1 1 1 2 2 2
6 5 5 5 4 4 4 4 3 3 3 3 2 1 1 2 3 3 4 4 4 4 4 4 4 4 4 3 2 2 1 2 2 2 2 1 1 1 1 1 2 2 2 2
4 4 4 4 4 4 4 4 3 3 3 2 1 2 2 2 3 3 3 3 3 4 4 5 6 4 3 3 3 2 1 2 2 2 1 2 2 2 2 2 2 2 2 2
2 2 2 2 2 3 3 3 2 2 2 1 1 1 2 2 2 2 2 2 3 3 4 4 4 3 3 3 3 2 1 1 1 1 1 1 2 2 2 2 2 2 2 2
2 2 2 1 2 2 2 2 2 2 2 1 2 2 2 2 2 2 2 2 3 4 4 4 3 3 3 3 3 1 1 1 1 1 1 2 2 2 2 2 2 2 2 2
2 2 2 1 1 1 1 1 1 1 1 1 1 1 1 2 2 2 2 2 3 4 4 3 3 3 3 3 2 1 1 1 1 1 2 2 2 2 2 2 2 2 2 2
2 2 2 2 2 1 1 1 1 1 2 2 2 2 2 2 2 2 2 2 3 4 3 2 3 4 4 2 2 1 1 1 1 2 2 2 2 2 2 2 2 2 2 2
2 2 2 1 1 1 1 1 1 1 2 2 2 2 2 2 2 2 2 3 3 4 3 3 4 4 3 2 1 1 1 1 2 2 2 2 2 2 2 2 2 2 2 2
2 2 2 2 2 2 2 1 1 1 1 1 2 2 2 2 2 2 2 3 3 3 2 3 4 3 2 2 2 2 2 2 2 2 2 2 2 2 2 2 2 2 2 2
3 3 3 3 3 2 2 2 1 1 1 1 2 2 2 2 2 2 2 2 2 2 2 2 2 2 2 2 2 2 2 2 2 2 2 2 2 2 2 2 2 2 2 2
2 2 2 2 2 2 2 2 2 2 2 2 2 2 2 2 2 2 2 2 2 2 2 2 2 2 2 2 2 2 2 2 2 2 2 2 2 2 2 2 2 2 2 2
Wind_Direction
268 276 264 258 251 230 227 240 251 269 271 282 298 303 305 310 316 322 325 331 333 330 328 327 324 321 319 313 302 296 291 287 285 286 283 280 275 270 263 260 257 257 257 262
267 260 263 265 257 241 241 247 254 268 274 287 302 306 308 308 314 320 325 326 328 328 327 325 322 320 320 319 310 301 297 293 292 288 284 278 277 273 270 267 262 258 256 261
262 299 281 260 242 221 226 229 230 249 268 303 308 308 308 305 307 315 322 321 321 323 322 322 322 321 318 315 315 312 305 302 297 293 288 284 283 275 271 271 269 265 267 264
274 284 245 257 85 214 232 250 238 258 278 291 298 305 300 290 298 312 316 319 319 319 320 323 324 324 320 319 319 322 322 318 313 302 295 297 293 284 279 275 268 271 272 272
235 261 271 274 223 200 226 270 235 248 275 293 312 309 294 296 311 310 310 312 314 314 316 320 326 328 325 326 328 331 326 322 319 315 306 299 297 295 288 284 281 279 285 274
221 246 254 296 77 240 219 266 217 252 278 299 314 303 313 334 322 315 315 315 318 320 322 326 330 331 330 328 329 325 319 317 321 325 324 318 306 300 296 289 289 294 292 292
228 244 266 297 112 177 221 300 303 266 277 277 276 285 309 315 315 316 316 316 319 322 326 329 332 333 329 327 324 320 319 321 333 339 334 331 332 317 303 291 288 292 317 324
203 225 256 139 148 201 280 318 274 275 280 278 283 296 304 309 312 317 320 320 324 329 328 331 337 335 329 329 327 329 330 335 342 347 349 347 347 347 347 296 325 359 9 354
207 227 305 184 223 266 288 275 276 281 287 285 286 289 300 305 308 314 318 322 328 333 331 335 342 342 333 329 332 332 338 345 351 355 355 351 350 7 14 15 21 19 25 12
250 260 261 251 259 270 269 269 277 281 283 280 277 285 294 300 308 315 321 325 331 335 336 340 345 345 334 329 333 340 348 351 355 357 358 8 12 18 22 15 15 15 14 3
251 272 284 259 252 264 270 273 278 283 282 278 275 281 286 295 304 313 321 328 335 335 337 340 345 344 341 341 350 358 359 357 358 358 2 11 13 11 13 14 8 353 338 352
241 238 234 263 267 262 258 266 273 280 288 285 274 277 288 294 302 311 320 331 336 340 341 340 344 343 344 345 354 3 0 355 354 352 1 10 18 21 31 28 31 35 33 38
254 264 263 272 272 261 262 272 280 275 276 282 285 278 282 296 304 312 320 328 333 335 335 336 340 342 344 345 350 0 356 347 347 350 356 4 14 20 20 32 39 38 44 44
248 255 262 260 267 279 277 286 292 291 288 285 288 291 293 300 306 312 317 322 329 335 336 337 340 342 342 345 352 355 349 347 344 345 348 352 358 0 6 15 15 18 30 36
244 243 250 272 293 300 297 293 296 300 305 307 301 294 293 296 304 311 318 326 333 338 338 340 342 340 343 346 353 352 349 350 351 348 348 350 355 0 7 9 8 359 3 12
258 244 238 247 261 274 282 281 279 286 290 289 289 292 296 299 306 316 324 333 339 336 335 338 336 334 339 345 350 354 356 356 350 353 356 356 358 359 356 354 352 351 347 338
209 226 232 244 253 264 266 265 264 271 279 276 280 293 307 318 324 328 332 336 333 329 330 332 330 332 338 343 346 345 348 356 349 347 349 345 345 344 344 347 345 338 332 334
229 235 235 238 244 254 267 270 267 267 268 275 283 290 293 297 305 315 327 336 341 344 343 339 334 333 338 340 341 337 340 347 349 344 340 344 342 340 338 333 330 325 324 331
231 236 240 240 240 240 250 261 266 269 271 260 253 266 278 287 298 310 322 335 336 334 334 339 338 339 338 340 337 339 341 343 347 345 340 336 333 332 326 318 316 316 317 317
227 229 229 238 244 238 243 256 262 266 262 240 243 270 289 295 302 308 314 317 313 314 320 326 330 335 337 339 335 338 337 333 331 332 332 327 323 324 322 317 313 311 312 309
211 213 216 228 253 259 249 242 235 248 259 233 228 247 271 292 300 299 296 312 319 331 334 330 334 332 331 335 333 338 336 329 324 322 322 321 319 318 318 317 314 309 308 307
200 199 210 218 230 267 277 252 227 223 227 242 254 256 269 287 292 290 282 286 308 319 327 324 326 333 345 344 341 338 335 328 320 317 315 312 310 311 313 311 308 309 308 306
206 202 201 207 213 241 287 269 226 217 228 238 241 244 255 271 276 277 293 303 315 318 323 318 326 337 346 345 339 332 323 316 310 306 303 301 300 301 304 307 307 306 307 309
208 207 207 200 174 189 238 269 267 262 256 262 259 254 255 270 283 275 290 300 310 312 316 318 326 335 340 335 327 321 313 307 305 301 300 302 302 301 301 303 307 309 311 315
205 203 194 189 200 221 235 243 276 285 292 293 289 277 263 262 268 287 297 298 302 306 309 317 328 334 335 324 321 315 310 303 306 305 302 303 304 305 307 309 311 314 316 316
207 214 222 230 233 229 223 219 234 251 266 283 296 292 289 288 288 294 299 300 301 305 308 306 313 322 323 321 316 312 312 312 312 312 310 308 307 308 311 317 325 321 315 315
207 211 219 236 235 216 213 218 225 235 238 248 277 287 291 293 298 304 305 303 303 304 306 308 310 310 313 313 313 314 316 316 314 311 308 306 307 308 313 317 320 317 315 314
Height
1494 1493 1493 1492 1492 1493 1492 1484 1479 1470 1471 1466 1467 1467 1465 1463 1460 1458 1456 1454 1451 1449 1447 1444 1441 1439 1437 1435 1434 1433 1432 1430 1429 1428 1427 1426 1425 1425 1424 1424 1423 1423 1423 1422
1494 1492 1492 1490 1486 1487 1487 1484 1480 1477 1472 1467 1467 1466 1464 1461 1459 1457 1454 1452 1449 1447 1444 1442 1439 1436 1434 1432 1431 1430 1428 1427 1426 1425 1424 1423 1423 1422 1421 1421 1420 1420 1419 1419
1484 1491 1490 1479 1476 1479 1479 1477 1476 1472 1467 1467 1466 1464 1462 1460 1458 1456 1453 1451 1448 1445 1442 1439 1437 1434 1432 1430 1428 1427 1425 1424 1423 1422 1421 1421 1420 1419 1418 1418 1417 1416 1416 1415
1488 1489 1480 1469 1476 1475 1475 1474 1473 1470 1468 1467 1466 1463 1460 1458 1457 1454 1451 1449 1446 1443 1440 1438 1435 1432 1430 1428 1426 1424 1423 1422 1421 1420 1419 1418 1417 1417 1416 1415 1414 1414 1413 1413
1489 1481 1470 1470 1473 1475 1474 1469 1468 1468 1466 1466 1464 1460 1457 1456 1455 1453 1450 1447 1444 1441 1439 1436 1433 1431 1428 1426 1424 1423 1421 1420 1419 1418 1417 1416 1415 1415 1414 1413 1412 1411 1411 1411
1490 1480 1469 1465 1472 1473 1474 1466 1465 1465 1464 1463 1462 1458 1455 1454 1452 1450 1448 1445 1442 1440 1437 1434 1432 1429 1427 1425 1423 1421 1420 1419 1418 1416 1415 1414 1414 1413 1412 1411 1410 1409 1409 1409
1486 1479 1468 1469 1472 1472 1469 1462 1464 1463 1462 1462 1461 1459 1456 1453 1450 1448 1445 1443 1440 1438 1435 1433 1431 1429 1426 1424 1422 1421 1420 1418 1417 1415 1414 1413 1412 1411 1410 1409 1408 1408 1407 1407
1482 1477 1469 1469 1470 1469 1464 1463 1462 1461 1460 1459 1458 1455 1453 1451 1448 1445 1443 1440 1438 1436 1433 1432 1430 1427 1425 1423 1421 1420 1418 1417 1415 1414 1412 1411 1410 1409 1408 1408 1407 1406 1406 1406
1474 1469 1466 1466 1465 1465 1463 1462 1461 1459 1458 1457 1455 1452 1450 1448 1445 1443 1441 1439 1437 1434 1432 1430 1428 1426 1424 1422 1420 1419 1417 1416 1414 1413 1412 1411 1409 1408 1407 1407 1406 1405 1405 1405
1473 1465 1464 1464 1463 1462 1461 1460 1459 1458 1456 1454 1452 1450 1448 1445 1443 1441 1439 1437 1435 1433 1431 1429 1427 1425 1423 1421 1420 1418 1416 1415 1414 1412 1411 1410 1409 1407 1407 1406 1405 1404 1404 1404
1469 1464 1462 1460 1459 1459 1458 1457 1456 1455 1453 1452 1449 1447 1446 1443 1441 1439 1437 1435 1434 1432 1430 1428 1426 1424 1422 1421 1419 1417 1415 1414 1413 1412 1410 1409 1408 1407 1406 1405 1405 1404 1404 1404
1459 1458 1459 1457 1456 1456 1455 1454 1453 1452 1450 1448 1447 1445 1443 1442 1440 1438 1436 1434 1432 1431 1429 1427 1425 1423 1422 1420 1418 1416 1415 1413 1412 1411 1410 1409 1408 1407 1406 1406 1405 1404 1404 1404
1456 1455 1455 1454 1454 1453 1452 1451 1450 1449 1447 1446 1444 1443 1441 1440 1438 1437 1435 1433 1431 1430 1428 1426 1424 1422 1421 1419 1417 1416 1414 1413 1411 1410 1409 1408 1407 1406 1406 1406 1405 1405 1404 1404
1453 1453 1452 1451 1451 1450 1450 1449 1448 1446 1445 1444 1442 1441 1440 1438 1437 1435 1434 1432 1430 1428 1426 1425 1423 1421 1420 1418 1417 1415 1414 1412 1411 1410 1409 1408 1407 1406 1406 1405 1404 1404 1404 1403
1450 1450 1450 1449 1448 1448 1447 1446 1445 1444 1442 1441 1440 1439 1438 1437 1435 1434 1432 1431 1429 1427 1425 1424 1422 1421 1419 1418 1416 1414 1413 1411 1410 1409 1408 1407 1406 1406 1405 1404 1404 1403 1402 1402
1446 1446 1446 1446 1445 1445 1444 1443 1442 1441 1440 1439 1438 1437 1437 1435 1434 1433 1431 1430 1428 1426 1424 1423 1421 1420 1418 1417 1415 1414 1412 1411 1410 1409 1407 1407 1406 1405 1404 1404 1403 1402 1401 1401
1443 1443 1442 1442 1442 1442 1441 1441 1440 1439 1439 1438 1437 1436 1435 1434 1432 1431 1430 1429 1427 1425 1424 1422 1421 1419 1418 1416 1415 1413 1412 1411 1410 1408 1407 1406 1406 1405 1404 1403 1402 1401 1401 1400
1440 1440 1440 1440 1439 1439 1439 1439 1438 1437 1437 1436 1435 1434 1433 1432 1431 1430 1429 1428 1426 1425 1423 1422 1420 1419 1417 1416 1415 1413 1412 1410 1409 1408 1407 1406 1405 1404 1403 1402 1401 1400 1400 1399
1437 1437 1437 1437 1437 1437 1437 1436 1436 1436 1435 1434 1434 1433 1432 1431 1431 1429 1428 1427 1425 1424 1423 1422 1420 1418 1417 1416 1415 1413 1411 1410 1409 1408 1407 1406 1405 1404 1403 1402 1401 1400 1399 1398
1435 1435 1435 1435 1435 1435 1435 1435 1434 1434 1434 1433 1432 1432 1431 1430 1429 1428 1427 1426 1425 1423 1422 1421 1419 1418 1417 1416 1414 1413 1411 1410 1409 1407 1406 1405 1404 1403 1402 1401 1400 1399 1398 1397
1433 1433 1434 1434 1434 1434 1434 1433 1433 1433 1432 1432 1431 1430 1430 1429 1428 1427 1426 1425 1424 1423 1422 1420 1419 1418 1416 1415 1414 1412 1411 1410 1408 1407 1406 1404 1403 1402 1401 1400 1399 1398 1397 1396
1432 1432 1432 1433 1433 1433 1432 1432 1432 1431 1431 1431 1430 1430 1429 1428 1427 1426 1425 1424 1423 1422 1421 1419 1418 1417 1416 1414 1413 1412 1410 1409 1408 1406 1405 1404 1403 1401 1400 1399 1398 1397 1396 1396
1431 1431 1432 1432 1432 1432 1431 1431 1431 1431 1430 1429 1429 1428 1428 1427 1426 1425 1424 1423 1422 1421 1419 1418 1417 1416 1415 1413 1412 1411 1410 1408 1407 1406 1405 1404 1402 1401 1400 1399 1398 1397 1396 1395
1430 1430 1431 1431 1431 1430 1430 1430 1430 1429 1429 1428 1428 1427 1426 1425 1424 1423 1422 1421 1420 1419 1418 1417 1415 1414 1413 1412 1411 1410 1409 1408 1406 1405 1404 1403 1402 1401 1399 1398 1397 1396 1395 1394
1429 1429 1429 1429 1429 1429 1429 1428 1428 1428 1427 1427 1426 1425 1425 1424 1423 1422 1421 1420 1419 1418 1417 1415 1414 1413 1412 1411 1410 1409 1408 1407 1406 1404 1403 1402 1401 1400 1399 1398 1397 1396 1395 1394
1427 1427 1427 1428 1428 1428 1427 1427 1426 1426 1425 1424 1424 1423 1423 1422 1421 1420 1419 1418 1417 1416 1415 1414 1413 1412 1411 1410 1409 1408 1407 1406 1405 1404 1403 1402 1401 1400 1399 1398 1397 1396 1395 1394
1425 1425 1425 1425 1425 1426 1425 1425 1425 1424 1424 1423 1422 1421 1421 1420 1419 1418 1417 1417 1416 1415 1414 1413 1412 1411 1410 1409 1408 1407 1406 1405 1404 1403 1402 1401 1400 1399 1398 1398 1397 1396 1395 1394